TimeCAT,TemperatureF,Dew PointF,Humidity,Sea Level PressureIn,VisibilityMPH,Wind Direction,Wind SpeedMPH,Gust SpeedMPH,PrecipitationIn,Events,Conditions,WindDirDegrees,DateUTC
12:00 AM,66.2,55.4,68,30.24,-9999.0,Variable,2.3,-,N/A,,Clear,0,2013-03-11 22:00:00
1:00 AM,64.4,55.4,73,30.24,-9999.0,ENE,6.9,-,N/A,,Clear,60,2013-03-11 23:00:00
2:00 AM,64.4,55.4,73,30.21,-9999.0,NE,5.8,-,N/A,,Clear,40,2013-03-12 00:00:00
3:00 AM,64.4,55.4,73,30.21,-9999.0,NE,5.8,-,N/A,,Clear,50,2013-03-12 01:00:00
4:00 AM,62.6,57.2,82,30.18,-9999.0,ENE,6.9,-,N/A,,Clear,60,2013-03-12 02:00:00
5:00 AM,60.8,57.2,88,30.21,-9999.0,NE,5.8,-,N/A,,Clear,50,2013-03-12 03:00:00
6:00 AM,59.0,55.4,88,30.21,-9999.0,ESE,6.9,-,N/A,,Clear,120,2013-03-12 04:00:00
7:00 AM,60.8,55.4,82,30.24,-9999.0,ESE,4.6,-,N/A,,Clear,110,2013-03-12 05:00:00
8:00 AM,64.4,55.4,73,30.27,-9999.0,North,-9999.0,-,N/A,,Partly Cloudy,0,2013-03-12 06:00:00
9:00 AM,68.0,53.6,60,30.30,6.2,NE,11.5,-,N/A,,Scattered Clouds,40,2013-03-12 07:00:00
10:00 AM,69.8,53.6,56,30.27,6.2,NNE,11.5,-,N/A,,Partly Cloudy,20,2013-03-12 08:00:00
11:00 AM,75.2,53.6,47,30.24,-9999.0,NE,10.4,-,N/A,,Clear,40,2013-03-12 09:00:00
12:00 PM,77.0,53.6,44,30.21,-9999.0,NE,10.4,-,N/A,,Clear,50,2013-03-12 10:00:00
1:00 PM,78.8,51.8,39,30.18,6.2,NE,5.8,-,N/A,,Partly Cloudy,50,2013-03-12 11:00:00
2:00 PM,82.4,51.8,35,30.18,6.2,ENE,6.9,-,N/A,,Partly Cloudy,60,2013-03-12 12:00:00
4:00 PM,84.2,50.0,30,30.12,6.2,Variable,3.5,-,N/A,,Partly Cloudy,0,2013-03-12 14:00:00
5:00 PM,84.2,48.2,29,30.09,6.2,NNE,3.5,-,N/A,,Partly Cloudy,20,2013-03-12 15:00:00
6:00 PM,82.4,50.0,32,30.09,6.2,NE,3.5,-,N/A,,Partly Cloudy,50,2013-03-12 16:00:00
7:00 PM,78.8,50.0,36,30.09,6.2,NNE,4.6,-,N/A,,Partly Cloudy,30,2013-03-12 17:00:00
8:00 PM,75.2,51.8,44,30.12,6.2,NNE,5.8,-,N/A,,Partly Cloudy,30,2013-03-12 18:00:00
9:00 PM,73.4,51.8,47,30.12,-9999.0,NNE,5.8,-,N/A,,Clear,20,2013-03-12 19:00:00
10:00 PM,71.6,53.6,53,30.15,-9999.0,North,4.6,-,N/A,,Clear,360,2013-03-12 20:00:00
11:00 PM,71.6,53.6,53,30.15,-9999.0,NE,6.9,-,N/A,,Clear,40,2013-03-12 21:00:00